DB0FTH-6 Weather Reports


time (UTC)temp
C
wind
direction
speed
KPH
gust
KPH
rain 1hr
cm
rain 24hr
cm
rain mn
cm
humidity
%
barometer
mb
20190422080401 18 337 0.0 0.0 0.00 0.00 0.00 49 1009.9
20190422075401 17 0 0.0 0.0 0.00 0.00 0.00 50 1009.9
20190422074401 16 0 0.0 0.0 0.00 0.00 0.00 51 1010.0
20190422073401 16 0 0.0 0.0 0.00 0.00 0.00 51 1010.0
20190422072401 15 0 0.0 0.0 0.00 0.00 0.00 53 1010.0
20190422071401 15 0 0.0 0.0 0.00 0.00 0.00 54 1010.2
20190422070401 14 0 0.0 0.0 0.00 0.00 0.00 56 1010.2
20190422065401 14 225 0.0 0.0 0.00 0.00 0.00 58 1010.2
20190422064401 13 202 0.0 0.0 0.00 0.00 0.00 60 1010.4
20190422063401 13 180 0.0 0.0 0.00 0.00 0.00 61 1010.4
20190422062401 12 180 0.0 0.0 0.00 0.00 0.00 63 1010.5
20190422061401 12 180 0.0 0.0 0.00 0.00 0.00 65 1010.7
20190422060401 11 180 0.0 0.0 0.00 0.00 0.00 65 1010.5
20190422055401 11 180 0.0 0.0 0.00 0.00 0.00 67 1010.5
20190422054401 10 180 0.0 0.0 0.00 0.00 0.00 70 1010.5
20190422053401 9 180 0.0 0.0 0.00 0.00 0.00 73 1010.5
20190422052401 8 180 0.0 0.0 0.00 0.00 0.00 75 1010.5
20190422051401 7 180 0.0 0.0 0.00 0.00 0.00 76 1010.5
20190422050401 6 180 0.0 0.0 0.00 0.00 0.00 77 1010.7
20190422045401 6 180 0.0 0.0 0.00 0.00 0.00 77 1010.7
20190422044401 5 180 0.0 0.0 0.00 0.00 0.00 76 1010.7
20190422043401 6 180 0.0 0.0 0.00 0.00 0.00 76 1010.9
20190422042401 6 180 0.0 0.0 0.00 0.00 0.00 76 1010.9
20190422041401 6 180 0.0 0.0 0.00 0.00 0.00 75 1011.0
20190422040401 6 180 0.0 0.0 0.00 0.00 0.00 75 1011.0
20190422035401 6 180 0.0 0.0 0.00 0.00 0.00 75 1011.0
20190422034401 6 180 0.0 0.0 0.00 0.00 0.00 75 1011.0
20190422033401 6 180 0.0 0.0 0.00 0.00 0.00 74 1011.2
20190422032401 6 180 0.0 0.0 0.00 0.00 0.00 74 1011.2
20190422031401 6 180 0.0 0.0 0.00 0.00 0.00 74 1011.4
20190422030401 6 180 0.0 0.0 0.00 0.00 0.00 74 1011.5
20190422025401 7 180 0.0 0.0 0.00 0.00 0.00 74 1011.7
20190422024401 7 180 0.0 0.0 0.00 0.00 0.00 73 1011.7
20190422023401 7 180 0.0 0.0 0.00 0.00 0.00 72 1012.0
20190422022401 7 180 0.0 0.0 0.00 0.00 0.00 72 1012.0
20190422021401 7 180 0.0 0.0 0.00 0.00 0.00 72 1012.0
20190422020401 7 180 0.0 0.0 0.00 0.00 0.00 71 1012.2
20190422015401 7 180 0.0 0.0 0.00 0.00 0.00 70 1012.2
20190422014401 7 180 0.0 0.0 0.00 0.00 0.00 68 1012.2
20190422013401 8 180 0.0 0.0 0.00 0.00 0.00 67 1012.2
20190422012401 8 180 0.0 0.0 0.00 0.00 0.00 67 1012.4
20190422011401 8 180 0.0 0.0 0.00 0.00 0.00 67 1012.5
20190422010401 8 180 0.0 0.0 0.00 0.00 0.00 66 1012.5
20190422005401 8 180 0.0 0.0 0.00 0.00 0.00 66 1012.5
20190422004401 8 180 0.0 0.0 0.00 0.00 0.00 66 1012.5
20190422003401 8 180 0.0 0.0 0.00 0.00 0.00 66 1012.5
20190422002401 8 180 0.0 0.0 0.00 0.00 0.00 66 1012.7
20190422001401 8 180 0.0 0.0 0.00 0.00 0.00 65 1012.7
20190422000401 9 180 0.0 0.0 0.00 0.00 0.00 65 1013.0
20190421235401 9 180 0.0 0.0 0.00 0.00 0.00 65 1013.0
20190421234401 9 180 0.0 0.0 0.00 0.00 0.00 64 1013.0
20190421233401 9 180 0.0 0.0 0.00 0.00 0.00 65 1013.0
20190421232401 10 180 0.0 0.0 0.00 0.00 0.00 64 1013.0
20190421231401 10 180 0.0 0.0 0.00 0.00 0.00 63 1013.0
20190421230401 10 180 0.0 0.0 0.00 0.00 0.00 62 1013.0
20190421225401 10 180 0.0 0.0 0.00 0.00 0.00 62 1013.0
20190421224401 10 180 0.0 0.0 0.00 0.00 0.00 60 1013.0
20190421223401 10 180 0.0 0.0 0.00 0.00 0.00 60 1013.0
20190421222401 11 180 0.0 0.0 0.00 0.00 0.00 59 1013.2
20190421221401 11 180 0.0 0.0 0.00 0.00 0.00 58 1013.2
20190421220401 11 180 0.0 0.0 0.00 0.00 0.00 58 1013.2
20190421215401 11 180 0.0 0.0 0.00 0.00 0.00 56 1013.4
20190421214401 12 180 0.0 0.0 0.00 0.00 0.00 55 1013.4
20190421213401 12 180 0.0 0.0 0.00 0.00 0.00 53 1013.2
20190421212401 12 180 0.0 0.0 0.00 0.00 0.00 51 1013.2
20190421211401 12 180 0.0 0.0 0.00 0.00 0.00 50 1013.4
20190421210401 13 180 0.0 0.0 0.00 0.00 0.00 48 1013.5
20190421205401 13 180 0.0 0.0 0.00 0.00 0.00 48 1013.7
20190421204401 13 180 0.0 0.0 0.00 0.00 0.00 47 1013.7
20190421203401 14 180 0.0 0.0 0.00 0.00 0.00 47 1013.5
20190421202401 14 180 0.0 0.0 0.00 0.00 0.00 45 1013.7
20190421201401 15 180 0.0 0.0 0.00 0.00 0.00 44 1013.5
20190421200401 15 180 0.0 0.0 0.00 0.00 0.00 43 1013.7
20190421195401 15 180 0.0 0.0 0.00 0.00 0.00 42 1013.9
20190421194401 15 180 0.0 0.0 0.00 0.00 0.00 41 1014.0
20190421193401 16 180 0.0 0.0 0.00 0.00 0.00 40 1014.0
20190421192401 16 180 0.0 0.0 0.00 0.00 0.00 40 1014.0
20190421191403 16 180 0.0 0.0 0.00 0.00 0.00 38 1014.0
20190421190401 17 180 0.0 0.0 0.00 0.00 0.00 37 1014.0
20190421185401 17 180 0.0 0.0 0.00 0.00 0.00 36 1014.0
20190421184401 17 180 0.0 0.0 0.00 0.00 0.00 36 1014.0
20190421183401 18 180 0.0 0.0 0.00 0.00 0.00 33 1014.0
20190421182401 19 180 0.0 0.0 0.00 0.00 0.00 31 1014.2
20190421181401 20 180 0.0 0.0 0.00 0.00 0.00 30 1014.0
20190421180401 20 180 0.0 0.0 0.00 0.00 0.00 30 1014.0
20190421175401 21 180 0.0 0.0 0.00 0.00 0.00 29 1014.0
20190421174401 21 180 0.0 0.0 0.00 0.00 0.00 29 1013.9
20190421173401 21 180 0.0 0.0 0.00 0.00 0.00 29 1014.0
20190421172401 22 180 0.0 0.0 0.00 0.00 0.00 28 1014.0
20190421171401 22 180 0.0 0.0 0.00 0.00 0.00 29 1014.0
20190421170401 22 157 0.0 0.0 0.00 0.00 0.00 28 1014.0
20190421165401 23 180 0.0 0.0 0.00 0.00 0.00 28 1013.9
20190421164401 23 180 0.0 0.0 0.00 0.00 0.00 28 1014.0
20190421163401 23 180 0.0 0.0 0.00 0.00 0.00 29 1014.2
20190421162401 23 157 0.0 0.0 0.00 0.00 0.00 28 1014.2
20190421161401 23 157 0.0 0.0 0.00 0.00 0.00 28 1014.4
20190421160401 23 180 0.0 0.0 0.00 0.00 0.00 28 1014.5
20190421155401 24 180 0.0 0.0 0.00 0.00 0.00 28 1014.5
20190421154401 24 157 0.0 0.0 0.00 0.00 0.00 27 1014.7
20190421153401 24 180 0.0 0.0 0.00 0.00 0.00 27 1014.7
20190421152401 24 157 0.0 0.0 0.00 0.00 0.00 27 1014.9
20190421151401 25 180 0.0 0.0 0.00 0.00 0.00 28 1015.0
20190421150401 25 180 0.0 0.0 0.00 0.00 0.00 27 1015.0
20190421145401 25 180 0.0 0.0 0.00 0.00 0.00 25 1015.2
20190421144401 25 270 0.0 0.0 0.00 0.00 0.00 25 1015.2
20190421143401 25 180 0.0 0.0 0.00 0.00 0.00 25 1015.4
20190421142401 25 180 24.1 0.0 0.00 0.00 0.00 24 1015.5
20190421141401 25 180 0.0 0.0 0.00 0.00 0.00 25 1015.5
20190421140401 25 180 0.0 0.0 0.00 0.00 0.00 25 1015.5
20190421135401 25 180 0.0 0.0 0.00 0.00 0.00 26 1015.5
20190421134404 25 0 0.0 0.0 0.00 0.00 0.00 25 1015.9
20190421133401 25 180 0.0 0.0 0.00 0.00 0.00 24 1016.0
20190421132401 25 180 0.0 0.0 0.00 0.00 0.00 25 1016.0
20190421131401 25 135 0.0 0.0 0.00 0.00 0.00 25 1016.2
20190421130401 25 157 0.0 0.0 0.00 0.00 0.00 26 1016.5
20190421125401 25 157 0.0 0.0 0.00 0.00 0.00 25 1016.5
20190421124401 25 157 0.0 0.0 0.00 0.00 0.00 27 1016.7
20190421123401 25 180 0.0 0.0 0.00 0.00 0.00 27 1016.9
20190421122401 24 270 0.0 0.0 0.00 0.00 0.00 27 1017.0
20190421121401 24 225 0.0 0.0 0.00 0.00 0.00 28 1017.0
20190421120401 24 180 0.0 0.0 0.00 0.00 0.00 28 1017.2
20190421115401 24 180 0.0 0.0 0.00 0.00 0.00 31 1017.5
20190421114401 23 202 0.0 0.0 0.00 0.00 0.00 30 1017.5
20190421113401 23 202 0.0 0.0 0.00 0.00 0.00 32 1017.7
20190421112401 23 337 0.0 0.0 0.00 0.00 0.00 32 1017.9
20190421111401 23 270 0.0 0.0 0.00 0.00 0.00 32 1018.0
20190421105401 22 0 0.0 0.0 0.00 0.00 0.00 34 1018.4
20190421104401 22 0 0.0 0.0 0.00 0.00 0.00 36 1018.5
20190421103401 22 0 0.0 0.0 0.00 0.00 0.00 37 1018.5
20190421102401 22 337 0.0 0.0 0.00 0.00 0.00 38 1018.9
20190421101401 21 337 0.0 0.0 0.00 0.00 0.00 38 1019.0
20190421100401 21 0 0.0 0.0 0.00 0.00 0.00 39 1019.0
20190421095401 21 0 0.0 0.0 0.00 0.00 0.00 39 1019.4
20190421094401 21 0 0.0 0.0 0.00 0.00 0.00 40 1019.5
20190421093401 20 0 0.0 0.0 0.00 0.00 0.00 41 1019.5
20190421092401 20 0 0.0 0.0 0.00 0.00 0.00 41 1019.7
20190421091401 20 0 0.0 0.0 0.00 0.00 0.00 42 1019.7
20190421090401 20 0 0.0 0.0 0.00 0.00 0.00 42 1019.9
20190421085401 19 337 0.0 0.0 0.00 0.00 0.00 44 1019.9
20190421084401 18 22 0.0 0.0 0.00 0.00 0.00 44 1020.0
20190421083401 18 0 0.0 0.0 0.00 0.00 0.00 46 1020.0
20190421082401 18 0 0.0 0.0 0.00 0.00 0.00 48 1020.0
20190421081401 17 0 0.0 0.0 0.00 0.00 0.00 50 1020.2